Flag for Germany Weather past 2 weeks in Wittenberg, Saxony-Anhalt, Germany

Now
63 °F

Light rain. Partly sunny.


Feels Like: 63 °F
Forecast: 61 / 76 °F
Wind: 8 mph from Northeast

Location: Holzdorf

Current Time: Jul 24, 2014 at 10:23:51 PM

Latest Report: Jul 24, 2014 at 9:46 PM


Visibility: N/A

Pressure: 29.98 "Hg

Humidity: 94%

Dew point: 61 °F

Location of WittenbergLocation

Historic Weather in Wittenberg — Graph

°F

Wittenberg temperature yesterday

Maximum temperature yesterday: 84 °F (at 3:20 PM)
Minimum temperature yesterday: 61 °F (at 4:20 AM)
Average temperature yesterday: 73 °F

Past Weeks' High & Low Weather Summary

 TemperatureHumidityPressure
High95 °F (Jul 20, 2:20 PM)100% (Jul 9, 10:20 PM)30.18 "Hg (Jul 9, 10:20 PM)
Low48 °F (Jul 13, 4:20 AM)21% (Jul 20, 3:20 PM)29.68 "Hg (Jul 10, 5:20 AM)
Average70 °F67%29.94 "Hg
* Reported Jul 9 8:20 PM — Jul 24 8:20 PM, Wittenberg, Weather by CustomWeather, © 2014

Note: Actual official high and low records may vary slightly from our data, if they occured in-between our weather recording intervals... More about our weather records

Advertising

Wittenberg weather history for previous 24 hours

 ConditionsComfort  
Time TempWeatherWind HumidityBarometerVisibility
8:20 PM
Jul 24
63 °FLight rain. Fog.8 mph94%29.98 "Hg3 mi
7:20 PM63 °FDrizzle. Fog.7 mph94%29.98 "Hg2 mi
6:20 PM63 °FLight rain. Partly sunny.7 mph94%29.98 "Hg4 mi
5:20 PM68 °FLight rain. Partly sunny.7 mph73%29.98 "HgN/A
5:00 PM68 °FLight rain. Broken clouds.12 mph73%30.01 "HgN/A
4:20 PM70 °FLight rain. Broken clouds.10 mph64%30.01 "HgN/A
3:20 PM72 °FBroken clouds.12 mph65%30.01 "HgN/A
2:20 PM72 °FBroken clouds.10 mph65%30.01 "HgN/A
1:20 PM72 °FBroken clouds.9 mph65%30.01 "HgN/A
12:20 PM68 °FBroken clouds.6 mph73%30.04 "HgN/A
11:20 AM68 °FBroken clouds.5 mph73%30.01 "HgN/A
10:20 AM63 °FLight rain. Broken clouds.2 mph83%30.01 "HgN/A
9:20 AM64 °FPartly sunny.6 mph73%30.01 "HgN/A
8:20 AM64 °FScattered clouds.5 mph78%30.01 "HgN/A
7:20 AM61 °FScattered clouds.5 mph88%30.01 "HgN/A
6:20 AM57 °FScattered clouds.2 mph94%30.01 "HgN/A
5:20 AM55 °FPassing clouds.1 mph94%30.01 "HgN/A
4:20 AM57 °FPassing clouds.6 mph94%30.01 "HgN/A
3:20 AM55 °FPassing clouds.2 mph100%30.01 "HgN/A
2:20 AM57 °FPassing clouds.2 mph100%30.01 "HgN/A
1:20 AM59 °FPassing clouds.1 mph94%30.01 "HgN/A
12:20 AM61 °FPassing clouds.3 mph94%30.01 "HgN/A
11:20 PM
Jul 23
63 °FPassing clouds.1 mph94%30.01 "HgN/A
10:20 PM63 °FPartly cloudy.6 mph94%30.04 "HgN/A
Weather by CustomWeather, © 2014

See weather overviewHow to use our weather pages